Regional Weather Roundup
Issued by NWS

Home | Current Version | Previous Version | Graphics & Text | Print | Product List | Glossary On
Versions: 1 2 3 4 5 6 7 8 9 10 11 12 13 14 15 16 17 18 19 20 21 22 23 24 25 26 27 28 29 30 31 32 33 34 35 36 37 38 39 40 41 42 43 44 45 46 47 48
000
ASUS45 KBOI 271410
RWRID

IDAHO REGIONAL WEATHER ROUNDUP
NATIONAL WEATHER SERVICE BOISE ID
800 AM MDT WED MAY 27 2015

NOTE: "FAIR" INDICATES FEW OR NO CLOUDS BELOW 12000 FEET
WITH NO SIGNIFICANT WEATHER AND/OR OBSTRUCTIONS TO VISIBILITY

IDZ012-014-271500-
SOUTHWEST IDAHO


CITY           SKY/WX    TMP DP  RH WIND       PRES   REMARKS
BOISE          MOSUNNY   57  51  80 NE5       30.00R
CALDWELL       MOSUNNY   57  45  62 W3        30.01R
MOUNTAIN HOME  SUNNY     58  46  65 N10       30.00R
$$

IDZ016-017-271500-
SOUTHCENTRAL IDAHO


CITY           SKY/WX    TMP DP  RH WIND       PRES   REMARKS
BURLEY         MOSUNNY   54  47  77 CALM      30.02R
JEROME         SUNNY     54  45  71 SE5       30.03R
TWIN FALLS     SUNNY     58  43  57 S14       30.00R
$$

IDZ019>023-271500-
SOUTHEAST IDAHO


CITY           SKY/WX    TMP DP  RH WIND       PRES   REMARKS
IDAHO FALLS    PTSUNNY   48  46  93 CALM      30.07S
POCATELLO      MOSUNNY   50  47  89 NE3       30.06S
REXBURG        CLOUDY    47  45  93 NE3       30.08R
$$

IDZ006-010-011-018-031-032-271500-
CENTRAL IDAHO MOUNTAINS


CITY           SKY/WX    TMP DP  RH WIND       PRES   REMARKS
MCCALL         CLOUDY    47  41  80 CALM      30.03S
HAILEY         PTSUNNY   48  43  81 W5        30.07S
STANLEY          N/A     43  37  79 SE5       30.10F
SALMON         CLOUDY    50  45  81 CALM      30.04S
CHALLIS        CLOUDY    48  41  76 CALM      30.06S
$$

IDZ002-004-006-007-026-271500-
NORTHERN IDAHO


CITY           SKY/WX    TMP DP  RH WIND       PRES   REMARKS
LEWISTON       SUNNY     56  50  80 CALM      30.01S
LOWELL           N/A     49  46  90 CALM      30.05S
COEUR D`ALENE  MOSUNNY   48  45  87 NE3       30.02S
MULLAN PASS    MOSUNNY   45  41  86 CALM      30.07R
$$



USA.gov is the U.S. government's official web portal to all federal, state and local government web resources and services.